sat.trackr.live / text

‹ back to catalog

STARLINK-31400

NORAD 59405 · 2024-064H

PAYLOAD ACTIVE UNKNOWN

§ Identity

Operator
Country
US
Launch date
2024-04-05
Launch site
AFETR
Launch vehicle
Mass (kg)
RCS (m²)

Purposes: comms

External: N2YO · Heavens-Above · Gunter

§ Orbital elements

Epoch: 2026-05-24T22:58:26.634144Z

Period
94.27 min
Inclination
43.0023°
Eccentricity
0.0000900
Mean motion
15.27525710 rev/d
Perigee alt
482.6 km
Apogee alt
483.8 km
Semi-major
6,861.3 km
B*
4.6250e-4
RAAN
345.1329°
Arg perigee
231.0601°
Mean anomaly
129.0170°
Rev number
12,089

§ Raw data

STARLINK-314001 59405U 24064H   26144.95725271  .00012465  00000+0  46250-3 0  99912 59405  43.0023 345.1329 0000900 231.0601 129.0170 15.27525710120891

JSON: /api/v1/satellites/59405 · /tle

For live sub-satellite position, see the globe view (requires WebGL).

§ Visibility from observer

Set your observer location to see the next 7 days of passes ≥ 10°. The values pass through the URL so the page stays shareable.

No JS? Fill the form by hand. The geolocation button needs JavaScript.